Overview Statistics Trail Chart Weather Telemetry Raw packets
 

This is the latest recevied weather packets stored in our database for station/object KQ4KX. If no packets are shown the sender has not sent any weather packets the latest 10 day(s).

<< 38 39 40 41 42 43 44 >>
Time Temp. Humidity Pressure Rain* Wind** Luminosity Snow
1788377896 34.44° C 69% 1013.6 hPa 0 mm - - -
1788377793 34.44° C 69% 1013.6 hPa 0 mm - - -
1788377463 34.44° C 70% 1013.7 hPa 0 mm - - -
1788375603 33.89° C 72% 1014.2 hPa 0 mm - - -
1788375003 33.89° C 73% 1014.4 hPa 0 mm - - -
1788374403 33.33° C 71% 1014.6 hPa 0 mm - - -
1788373773 32.78° C 75% 1014.7 hPa 0 mm - - -
1788373686 32.78° C 73% 1014.8 hPa 0 mm - - -
1788373473 32.78° C 73% 1014.8 hPa 0 mm - - -
1788372843 32.22° C 76% 1015 hPa 0 mm - - -
1788372731 31.67° C 77% 1015 hPa 0 mm - - -
1788372543 31.67° C 77% 1015 hPa 0 mm - - -
1788372213 31.67° C 77% 1015 hPa 0 mm - - -
1788372138 31.67° C 78% 1015.1 hPa 0 mm - - -
1788371913 31.67° C 78% 1015.1 hPa 0 mm - - -
1788368403 32.22° C 75% 1015.8 hPa 0 mm - - -
1788368103 32.22° C 74% 1015.8 hPa 0 mm - - -
1788367803 32.78° C 75% 1015.9 hPa 0 mm - - -
1788367503 32.78° C 76% 1015.8 hPa 0 mm - - -
1788367173 32.78° C 78% 1016 hPa 0 mm - - -
1788366845 32.78° C 77% 1016 hPa 0 mm - - -
1788366780 32.22° C 80% 1016.1 hPa 0 mm - - -
1788366543 32.22° C 80% 1016.1 hPa 0 mm - - -
1788365943 31.67° C 81% 1016.3 hPa 0 mm - - -
1788365343 31.11° C 81% 1016.5 hPa 0 mm - - -

* Rain latest hour (hover to see other rain measurements)
** Current wind speed in m/s (hover to see current wind gust speed)